Regional Weather Roundup
Issued by NWS

Home | Current Version | Previous Version | Text Only | Print | Product List | Glossary Off
Versions: 1 2 3 4 5 6 7 8 9 10 11 12 13 14 15 16 17 18 19 20 21 22 23 24 25 26 27 28 29 30 31 32 33 34 35 36 37 38 39 40 41 42 43 44 45 46 47 48 49 50

570
ASUS43 KFSD 290210
RWRSD

WEATHER ROUNDUP FOR SOUTH DAKOTA
NATIONAL WEATHER SERVICE SIOUX FALLS SD
900 PM CDT THU APR 28 2016

NOTE: "FAIR" INDICATES FEW OR NO CLOUDS BELOW 12,000 FEET WITH NO
SIGNIFICANT WEATHER AND/OR OBSTRUCTIONS TO VISIBILITY.


SDZ001>005-009-010-012>017-290300-
NORTHWEST AND NORTH CENTRAL SOUTH DAKOTA

CITY           SKY/WX    TMP DP  RH WIND       PRES   REMARKS
BUFFALO          N/A     38  34  85 SW5       30.06S
FAITH            N/A     35  30  82 W6        30.11R
MOBRIDGE       CLOUDY    48  41  76 CALM      30.08R
$$

SDZ012>016-024>037-041>051-057-063-072>074-290300-
SOUTHWEST AND SOUTH CENTRAL SOUTH DAKOTA

CITY           SKY/WX    TMP DP  RH WIND       PRES   REMARKS
RAPID CTY ARPT CLOUDY    37  34  89 NE6       30.12R
PIERRE         CLOUDY    44  36  73 CALM      30.10R
CUSTER         SNOW      31  28  89 E8G22     30.05R VSB 1/4 WCI  23
PHILIP         CLOUDY    41  35  79 N8        30.12R
PINE RIDGE     CLOUDY    39  35  86 NE8       30.09R
WINNER         CLOUDY    44  38  79 E3        30.10R
$$

SDZ004>011-016>023-039-040-290300-
NORTHEAST SOUTH DAKOTA

CITY           SKY/WX    TMP DP  RH WIND       PRES   REMARKS
ABERDEEN       CLOUDY    46  37  71 SE8       30.12R
WATERTOWN      CLOUDY    39  36  89 E8        30.10S
BROOKINGS      MIX PCPN  36  35  96 NE7       30.10R FOG
SISSETON         N/A     43  37  79 SW7       30.10R
$$

SDZ017-020-022-023-036>040-048>070-290300-
SOUTHEAST SOUTH DAKOTA

CITY           SKY/WX    TMP DP  RH WIND       PRES   REMARKS
SIOUX FALLS    CLOUDY    39  35  86 NE9       30.09R
HURON          CLOUDY    40  35  83 E9        30.12R
CHAMBERLAIN    CLOUDY    44  40  85 NE3       30.11R
MITCHELL       CLOUDY    41  36  82 NE7       30.11R
YANKTON        CLOUDY    43  37  81 N6        30.08R
$$

ABBREVIATIONS USED IN REMARKS
   TC - TEMPERATURE IN CELSIUS
  WCI - WIND CHILL INDEX
   HX - HEAT INDEX
  VSB - VISIBILITY





USA.gov is the U.S. government's official web portal to all federal, state and local government web resources and services.